Retour au catalogue

STARLINK-31133

ActifCommunicationsVLEO
NORAD 58622·PAYLOAD·🇺🇸 United States

Lancé Dec 23, 2023 depuis Cape Canaveral Space Force Station

Loading…

Prochains Passages (prochaines 24 heures)

TLE

FraisSource: CelesTrak SupGP

Époque: Sep 15, 2026, 01:48 UTC

1 58622C 23203E   26258.07548611  .00010940  00000+0  39618-3 0  2589
2 58622  43.0008  77.6383 0001497 271.9047 114.8361 15.27578906    10

Suivez STARLINK-31133 en temps réel avec AllMySat

Download on the App Store